map of NCY home
NCY - Airport
Location
City:  Annecy, Rhône-Alpes, France
Name:Meythet
ICAO:LFLP
IATA:NCY

Details
Type:Airport (Aerodrome, Airfield)
Use:Public/Civil
Latitude:45°55'51"N (45.930775)
Longitude:6°06'23"E (6.106289)
Elevation:1519 ft (463 m)
Variation:2.07°E (WMM2015v2 magnetic declination)
0.16° annual change
Runways:2
Longest:5299 × 98 ft (1615 × 30 m)

Time
Time Zone:UTC+1 (DST+2)
Local Time:

Weather
METAR:LFLP 041400Z AUTO VRB03KT CAVOK 04/M03 Q1025 NOSIG
TAF:LFLP 041400Z 0415/0515 VRB03KT CAVOK
BECMG 0502/0505 BKN020

Related Locations
Nearby:
Farthest:CHT: 12241 mi / 19700 km
Waitangi [Tuuta], CIT, NZ

Find:

   beyond  
but within

Other Information
Maps:
NOTAMs:
Links:
Sources:

  
  • flag of France
  • flag of Rhône-Alpes
  

Sectional Chart

Flight Planning
at skyvector.com

Satellite Image

Google Maps Satellite view

 

Copyright © 2004-2019 Karl L. Swartz. All rights reserved.
The Great Circle Mapper name and logo are trademarks of the Great Circle Mapper.
All other trademarks mentioned herein belong to their respective owners.
Please see credits for attibutions and further copyright information.

  Follow gcmap on Facebook Follow gcmap on Twitter GCmap on LinkedIn

hCard Microformat

Geo Microformat